This demonstration page uses our WeatherBlox Daily Observations layout. Learn more.

Left ArrowRight Arrow

39.08367, -84.50855

Hourly Observations for August 26, 2017

Temp ( °F °C ) Dew Point ( °F °C ) Humidity (%) Winds ( mph kmh ) Pressure ( in mb ) Visibility ( mi km ) Precip ( " mm )
12:53 am 00:53 Clear 55 12.8 55 12.8 100 100 N N/A 30.24 1024 10 16.0934 N/A
1:53 am 01:53 Clear 55 12.8 55 12.8 100 100 N N/A 30.24 1024 10 16.0934 N/A
2:28 am 02:28 Clear with Mist and Fog 54 12.2 54 12.2 100 100 N N/A 30.24 1024 2 3.21868 N/A
2:45 am 02:45 Clear with Mist and Fog 53 11.7 53 11.7 100 100 N N/A 30.27 1025 6 9.65604 N/A
2:53 am 02:53 Clear 53 11.7 53 11.7 100 100 N N/A 30.25 1024 10 16.0934 N/A
3:28 am 03:28 Mostly Clear with Mist and Fog 52 11.1 52 11.1 100 100 N N/A 30.27 1025 1.75 2.816345 N/A
3:40 am 03:40 Clear with Mist and Fog 53 11.7 53 11.7 100 100 N N/A 30.24 1024 4 6.43736 N/A
3:53 am 03:53 Clear 52 11.1 52 11.1 100 100 N N/A 30.24 1024 10 16.0934 N/A
4:53 am 04:53 Clear 52 11.1 52 11.1 100 100 N N/A 30.25 1024 10 16.0934 N/A
5:53 am 05:53 Clear with Mist and Fog 52 11.1 52 11.1 100 100 N N/A 30.26 1025 4 6.43736 N/A
6:20 am 06:20 Clear with Mist and Fog 50 10 50 10 100 100 N N/A 30.27 1025 0.75 1.207005 N/A
6:34 am 06:34 Clear with Mist and Fog 50 10 50 10 100 100 N N/A 30.27 1025 2.5 4.02335 N/A
6:41 am 06:41 Clear with Mist and Fog 50 10 50 10 100 100 N N/A 30.27 1025 6 9.65604 N/A
6:53 am 06:53 Clear 51 10.6 51 10.6 100 100 N N/A 30.27 1025 10 16.0934 N/A
7:53 am 07:53 Sunny 52 11.1 52 11.1 100 100 N N/A 30.28 1025 10 16.0934 N/A
8:53 am 08:53 Sunny 60 15.6 55 12.8 84 84 NNE 5 7 30.28 1026 10 16.0934 N/A
9:53 am 09:53 Sunny 65 18.3 57 13.9 76 76 NNE 7 11 30.28 1025 10 16.0934 N/A
10:53 am 10:53 Sunny 70 21.1 58 14.4 66 66 NE 7 11 30.27 1025 10 16.0934 N/A
11:53 am 11:53 Mostly Sunny 74 23.3 55 12.8 52 52 NE 9 15 30.26 1025 10 16.0934 N/A
12:53 pm 12:53 Sunny 74 23.3 52 11.1 46 46 SE 7 11 30.25 1025 10 16.0934 N/A
1:53 pm 13:53 Sunny 77 25 53 11.7 43 43 ENE 7 11 30.24 1024 10 16.0934 N/A
2:53 pm 14:53 Sunny 78 25.6 53 11.7 42 42 ENE 12 19 30.22 1023 10 16.0934 N/A
3:53 pm 15:53 Sunny 78 25.6 54 12.2 43 43 NE 9 15 30.21 1023 10 16.0934 N/A
4:53 pm 16:53 Sunny 78 25.6 54 12.2 43 43 E 10 17 30.2 1023 10 16.0934 N/A
5:53 pm 17:53 Sunny 77 25 54 12.2 45 45 ENE 9 15 30.19 1023 10 16.0934 N/A
6:53 pm 18:53 Sunny 75 23.9 55 12.8 50 50 NE 8 13 30.19 1023 10 16.0934 N/A
7:53 pm 19:53 Sunny 70 21.1 56 13.3 61 61 NE 6 9 30.2 1023 10 16.0934 N/A
8:53 pm 20:53 Clear 64 17.8 58 14.4 81 81 N N/A 30.2 1023 10 16.0934 N/A
9:53 pm 21:53 Clear 62 16.7 58 14.4 86 86 N N/A 30.21 1023 10 16.0934 N/A
10:53 pm 22:53 Clear 58 14.4 57 13.9 97 97 N N/A 30.21 1023 10 16.0934 N/A
11:53 pm 23:53 Clear 57 13.9 57 13.9 100 100 N N/A 30.2 1023 10 16.0934 N/A

Powered by AerisWeather